Regional Weather Roundup
Issued by NWS Mobile, AL

Home | Current Version | Previous Version | Text Only | Print | Product List | Glossary On
Versions: 1 2 3 4 5 6 7 8 9 10 11 12 13 14 15 16 17 18 19 20 21 22 23 24 25 26 27 28 29 30 31 32 33 34 35 36 37 38 39 40 41 42 43 44 45 46 47 48 49 50
000
ASUS44 KMOB 301710
RWRMOB
REGIONAL WEATHER ROUNDUP
NATIONAL WEATHER SERVICE MOBILE AL
1200 PM CDT WED JUL 30 2014

NOTE: "FAIR" INDICATES FEW OR NO CLOUDS BELOW 12,000 FEET WITH NO
      SIGNIFICANT WEATHER AND/OR OBSTRUCTIONS TO VISIBILITY.

  * THESE STATIONS ARE PART OF THE UNIVERSITY OF SOUTH ALABAMA
    MESONET AND ARE NOT UNDER NWS OR FAA QUALITY CONTROL.

ALZ061>064-301800-
COASTAL ALABAMA

CITY           SKY/WX    TMP DP  RH WIND       PRES   REMARKS
MOBILE REG APT FAIR      81  59  47 VRB5      30.07F
BROOKLEY FIELD FAIR      82  59  45 VRB7      30.06F
USA CAMPUS*      N/A     81  57  44 NW3       30.04F
DOG RIVER*     NOT AVBL


CITY           SKY/WX    TMP DP  RH WIND       PRES   REMARKS
MOUNT VERNON*    N/A     79  59  50 CALM      30.07F
SARALAND*      NOT AVBL
BAY MINETTE*   NOT AVBL
LOXLEY*          N/A     81  55  41 NW7       30.05F
ROBERTSDALE*     N/A     81  59  47 N8        30.04F
FAIRHOPE*        N/A     81  63  54 NW8       30.04
ELBERTA*         N/A     81  70  69 NW6       30.04F
FOLEY*         NOT AVBL
GRAND BAY*       N/A     81  59  47 N6        30.04F
DAUPHIN ISLND* NOT AVBL
BON SCOUR NWR* NOT AVBL
GULF SHORES      N/A     83  62  48 N8        30.04F

$$

ALZ051>060-301800-
INTERIOR SOUTHWEST AND SOUTH CENTRAL ALABAMA

CITY           SKY/WX    TMP DP  RH WIND       PRES   REMARKS
GREENVILLE     FAIR      79  51  37 N8        30.06F
EVERGREEN      FAIR      84  53  34 NW8       30.06F
CASTLEBERRY*   NOT AVBL
ATMORE*          N/A     79  57  47 NW7       30.07F
DIXIE*         NOT AVBL
ANDALUSIA/OPP  FAIR      85  56  37 VRB5      30.05F
ANDALUSIA*     NOT AVBL
FLORALA APT    FAIR      82  56  40 CALM      30.06F
FLORALA*         N/A     79  54  41 W3        30.01F

$$

FLZ001>006-301800-
WESTERN FLORIDA PANHANDLE

CITY           SKY/WX    TMP DP  RH WIND       PRES   REMARKS
PENSACOLA      FAIR      81  60  48 VRB6      30.03F
NAS PENSACOLA  FAIR      84  61  45 N5        30.03F
MILTON         FAIR      82  58  43 NW8       30.04F
WHTNG S FIELD  FAIR      84  60  44 NW8       30.04F


CITY           SKY/WX    TMP DP  RH WIND       PRES   REMARKS
WALNUT HILL*   NOT AVBL
JAY*           NOT AVBL
DUKE FIELD     MOSUNNY   83  63  51 VRB7      30.03F
CRESTVIEW      FAIR      83  57  41 VRB3      30.05F
VALPARAISO     MOSUNNY   85  60  43 N6        30.03F
DESTIN         FAIR      84  61  45 N6        30.03F

$$

MSZ076-079-301800-
INTERIOR SOUTHEAST MISSISSIPPI

CITY           SKY/WX    TMP DP  RH WIND       PRES   REMARKS
LEAKESVILLE*     N/A     79  50  36 NE6         N/A
AGRICOLA*      NOT AVBL

$$

MARINE OBSERVATIONS

STATION/POSITION TIME  TEMP    WIND        PRES    WAVE
                       AIR SEA DIR/SP/G            HT/PER
                 (UTC) (F)     (DEG/KT/KT) (MB)    (FT/S)
PASCAGOULA       1700   81     360/  7/ 10 1017.5F
PETIT BOIS ISLND 1700   80      40/  4/  6 1018.2S
GRAND BAY        1600   78      40/  6     1019.0S
KATRINA CUT      1600   79      60/  9     1018.6S
CEDAR POINT      1600   76      40/  8     1017.6F
E DAUPHIN ISLAND 1700   77      10/  8/  9 1017.6F
MIDDLE BAY LIGHT 1600   79     360/  8     1017.6F
USCG MOBILE BAY  1700   80 83   20/  6/  8 1016.6F
STATE DOCKS      1700   84 82              1017.4F
MEAHER PARK      1600   80     340/  4     1017.3F
WEEKS BAY        1600   81                   N/A
12 S ORANGE BCH  1700   78 83   40/  6/  8 1017.4F   1/ 4
PENSACOLA BAY    1700   85 84   70/  5/  7 1017.3F
64 S DAUPHIN ISL 1605   81 86   50/  8/ 10 1017.5
67 S FORT MORGAN 1600   83                 1017.3R

$$

SELECTED LOCATIONS ACROSS THE REGION

CITY           SKY/WX    TMP DP  RH WIND       PRES   REMARKS
NEW ORLEANS    PTSUNNY   85  61  44 NE12      30.07F
GULFPORT       FAIR      86  59  39 N9        30.05F
PASCAGOULA AP  FAIR      83  60  45 VRB7      30.05F
PASCAGOULA*      N/A     82  59  44 N8        30.05F
HATTIESBURG    FAIR      81  55  40 CALM      30.09F
LAUREL         FAIR      81  54  39 NE8       30.11S
MERIDIAN       FAIR      81  53  37 VRB5      30.09F
JACKSON        FAIR      79  55  43 SE3       30.11F
MONTGOMERY     FAIR      81  51  35 VRB5      30.05F
TROY           FAIR      81  53  37 NW8       30.06F
KINSTON*       NOT AVBL
GENEVA*          N/A     81  59  47 N10       30.05F
ASHFORD*       NOT AVBL
DOTHAN         FAIR      81  59  47 VRB3      30.07F
PANAMA CITY    FAIR      87  63  44 NW9       30.01F

$$



USA.gov is the U.S. government's official web portal to all federal, state and local government web resources and services.